DW6723 Weather Reports


Display with metric or nautical units.
time (UTC)temp
F
wind
direction
speed
MPH
gust
MPH
rain 1hr
in
rain 24hr
in
rain mn
in
humidity
%
barometer
mb
20260906163047 65 38 1.0 6.0 0.00 0.00 0.00 72 1014.8
20260906161544 65 57 2.0 6.0 0.00 0.00 0.00 73 1014.7
20260906160035 64 32 6.0 10.0 0.00 0.00 0.00 73 1015.0
20260906154540 63 315 2.0 9.0 0.00 0.00 0.00 76 1015.2
20260906153035 63 349 5.0 9.0 0.00 0.00 0.00 75 1015.3
20260906151536 63 32 3.0 7.0 0.00 0.00 0.00 75 1015.5
20260906150034 62 21 2.0 9.0 0.00 0.00 0.00 74 1015.6
20260906144537 62 64 3.0 6.0 0.00 0.00 0.00 72 1015.4
20260906143019 62 17 5.0 8.0 0.00 0.00 0.00 73 1015.5
20260906141519 61 44 4.0 8.0 0.00 0.00 0.00 75 1015.6
20260906140020 61 51 5.0 11.0 0.00 0.00 0.00 76 1015.7
20260906134516 60 32 6.0 10.0 0.00 0.00 0.00 77 1015.6
20260906133015 60 42 6.0 9.0 0.00 0.00 0.00 80 1015.5
20260906131515 60 49 3.0 7.0 0.00 0.00 0.00 80 1015.5
20260906130016 60 56 4.0 8.0 0.00 0.00 0.00 81 1015.5
20260906124516 60 51 5.0 8.0 0.00 0.00 0.00 81 1015.3
20260906123113 59 38 6.0 11.0 0.00 0.00 0.00 81 1015.3
20260906121600 59 51 7.0 14.0 0.00 0.00 0.00 82 1015.3
20260906120052 60 36 7.0 10.0 0.00 0.00 0.00 84 1015.2
20260906114536 59 25 5.0 9.0 0.00 0.00 0.00 86 1014.9
20260906113030 58 24 5.0 8.0 0.00 0.00 0.00 88 1014.6
20260906111527 58 23 5.0 8.0 0.00 0.00 0.00 89 1014.5
20260906110027 58 38 4.0 7.0 0.00 0.00 0.00 89 1014.4
20260906104526 58 9 4.0 6.0 0.00 0.00 0.00 89 1014.3
20260906103021 58 342 5.0 7.0 0.00 0.00 0.00 89 1014.1
20260906101520 58 355 5.0 8.0 0.00 0.00 0.00 89 1013.9
20260906100019 58 344 3.0 5.0 0.00 0.00 0.00 89 1013.8
20260906094505 58 355 3.0 5.0 0.00 0.00 0.00 90 1013.7
20260906093011 58 19 3.0 5.0 0.00 0.00 0.00 90 1013.6
20260906091504 58 32 4.0 6.0 0.00 0.00 0.00 89 1013.6
20260906090001 59 46 4.0 5.0 0.00 0.00 0.00 89 1013.5
20260906084610 59 32 5.0 8.0 0.00 0.00 0.00 89 1014.0
20260906083057 60 11 6.0 9.0 0.00 0.00 0.00 88 1013.7
20260906081556 60 341 3.0 7.0 0.00 0.00 0.00 86 1013.4
20260906080054 62 360 3.0 6.0 0.00 0.00 0.00 80 1013.5
20260906074533 62 59 2.0 4.0 0.00 0.00 0.00 79 1013.2
20260906073046 62 107 2.0 5.0 0.00 0.00 0.00 78 1013.2
20260906071529 62 90 1.0 4.0 0.00 0.00 0.00 78 1013.2
20260906070037 62 107 2.0 8.0 0.00 0.00 0.00 77 1013.1
20260906064527 62 80 3.0 8.0 0.00 0.00 0.00 80 1013.0
20260906063027 62 96 6.0 11.0 0.00 0.00 0.00 78 1012.9
20260906061525 62 84 7.0 12.0 0.00 0.00 0.00 81 1013.1
20260906060025 62 105 4.0 6.0 0.00 0.00 0.00 91 1012.8
20260906054504 62 56 1.0 3.0 0.00 0.00 0.00 92 1012.8
20260906053002 63 9 1.0 3.0 0.00 0.00 0.00 92 1013.0
20260906051549 63 332 1.0 3.0 0.00 0.00 0.00 92 1013.0
20260906050149 63 311 2.0 5.0 0.00 0.00 0.00 91 1013.0
20260906044547 63 337 2.0 6.0 0.00 0.00 0.00 91 1012.8
20260906043103 63 319 3.0 5.0 0.00 0.00 0.00 91 1012.8
20260906041546 63 321 3.0 6.0 0.00 0.00 0.00 91 1012.8
20260906040105 63 305 5.0 7.0 0.00 0.00 0.00 91 1012.8
20260906034544 63 306 4.0 6.0 0.00 0.00 0.00 90 1012.8
20260906033049 63 315 3.0 4.0 0.00 0.00 0.00 90 1012.6
20260906031531 63 321 3.0 5.0 0.00 0.00 0.00 90 1012.6
20260906030031 63 337 2.0 4.0 0.00 0.00 0.00 90 1012.6
20260906024535 63 321 2.0 4.0 0.00 0.00 0.00 90 1012.5
20260906023032 63 312 3.0 5.0 0.00 0.00 0.00 90 1012.6
20260906021530 63 332 3.0 4.0 0.00 0.00 0.00 90 1012.5
20260906020030 63 304 0.0 0.0 0.00 0.00 0.00 90 1012.6
20260906014541 63 313 0.0 3.0 0.00 0.00 0.00 89 1012.6
20260906013031 63 321 1.0 2.0 0.00 0.00 0.00 89 1012.6
20260906011509 63 319 0.0 2.0 0.00 0.00 0.00 88 1012.5
20260906010008 63 319 0.0 2.0 0.00 0.00 0.00 88 1012.4
20260906004549 63 319 0.0 2.0 0.00 0.00 0.00 88 1012.4
20260906003051 63 319 1.0 2.0 0.00 0.00 0.00 88 1012.2
20260906001543 63 331 1.0 2.0 0.00 0.00 0.00 87 1012.1
20260906000043 64 333 1.0 2.0 0.00 0.00 0.00 86 1012.0
20260905234552 64 38 0.0 1.0 0.00 0.00 0.00 87 1012.0
20260905233042 64 38 1.0 2.0 0.00 0.00 0.00 87 1011.9
20260905231543 64 38 1.0 2.0 0.00 0.00 0.00 85 1012.0
20260905230043 64 38 0.0 2.0 0.00 0.00 0.00 84 1011.8
20260905224546 64 38 0.0 2.0 0.00 0.00 0.00 84 1011.8
20260905223039 65 47 0.0 2.0 0.00 0.00 0.00 80 1011.8
20260905221541 64 134 0.0 2.0 0.00 0.00 0.00 81 1011.7
20260905220037 64 114 1.0 4.0 0.00 0.00 0.00 81 1011.5
20260905214534 64 128 2.0 4.0 0.00 0.00 0.00 82 1011.2
20260905213036 64 141 2.0 4.0 0.00 0.00 0.00 83 1011.1
20260905211507 64 146 3.0 6.0 0.00 0.00 0.00 84 1011.1
20260905210006 63 119 3.0 6.0 0.00 0.00 0.00 86 1011.2
20260905204552 63 126 3.0 7.0 0.00 0.00 0.00 88 1011.1
20260905203051 63 137 4.0 9.0 0.00 0.00 0.00 89 1011.0
20260905201550 63 134 4.0 9.0 0.00 0.00 0.00 90 1011.0
20260905200054 63 145 3.0 7.0 0.00 0.00 0.00 91 1010.9
20260905194552 63 148 3.0 11.0 0.00 0.00 0.00 90 1010.8
20260905193045 64 98 9.0 14.0 0.00 0.00 0.00 88 1011.0
20260905191546 65 106 14.0 18.0 0.00 0.00 0.00 82 1010.8
20260905190050 66 119 8.0 14.0 0.00 0.00 0.00 82 1010.7
20260905184532 66 126 5.0 10.0 0.00 0.00 0.00 82 1010.6
20260905183028 67 120 8.0 14.0 0.00 0.00 0.00 79 1010.5
20260905181530 67 80 8.0 11.0 0.00 0.00 0.00 77 1010.5
20260905180027 66 69 9.0 12.0 0.00 0.00 0.00 77 1010.5
20260905174527 66 96 6.0 12.0 0.00 0.00 0.00 81 1010.4
20260905173028 65 90 8.0 14.0 0.00 0.00 0.00 81 1010.4
20260905171526 65 85 8.0 16.0 0.00 0.00 0.00 81 1010.5
20260905170025 64 67 10.0 14.0 0.00 0.00 0.00 82 1010.5